Year,Month,Day,Hour,Minute,Value (Times are PST for temperature in C)
2021,04,22,00,00,8.60
2021,04,22,00,01,8.50
2021,04,22,00,02,8.40
2021,04,22,00,03,8.40
2021,04,22,00,04,8.40
2021,04,22,00,05,8.30
2021,04,22,00,06,8.30
2021,04,22,00,07,8.30
2021,04,22,00,08,8.30
2021,04,22,00,09,8.30
2021,04,22,00,10,8.30
2021,04,22,00,11,8.30
2021,04,22,00,12,8.30
2021,04,22,00,13,8.30
2021,04,22,00,14,8.30
2021,04,22,00,15,8.30
2021,04,22,00,16,8.30
2021,04,22,00,17,8.30
2021,04,22,00,18,8.30
2021,04,22,00,19,8.30
2021,04,22,00,20,8.40
2021,04,22,00,21,8.40
2021,04,22,00,22,8.40
2021,04,22,00,23,8.30
2021,04,22,00,24,8.30
2021,04,22,00,25,8.30
2021,04,22,00,26,8.30
2021,04,22,00,27,8.30
2021,04,22,00,28,8.30
2021,04,22,00,29,8.20
2021,04,22,00,30,8.20
2021,04,22,00,31,8.20
2021,04,22,00,32,8.20
2021,04,22,00,33,8.20
2021,04,22,00,34,8.10
2021,04,22,00,35,8.10
2021,04,22,00,36,8.10
2021,04,22,00,37,8.10
2021,04,22,00,38,8.10
2021,04,22,00,39,8.10
2021,04,22,00,40,8.10
2021,04,22,00,41,8.10
2021,04,22,00,42,8.10
2021,04,22,00,43,8.10
2021,04,22,00,44,8.10
2021,04,22,00,45,8.10
2021,04,22,00,46,8.20
2021,04,22,00,47,8.20
2021,04,22,00,48,8.20
2021,04,22,00,49,8.10
2021,04,22,00,50,8.10
2021,04,22,00,51,8.10
2021,04,22,00,52,8.10
2021,04,22,00,53,8.10
2021,04,22,00,54,8.10
2021,04,22,00,55,8.10
2021,04,22,00,56,8.10
2021,04,22,00,57,8.10
2021,04,22,00,58,8.10
2021,04,22,00,59,8.10
2021,04,22,01,00,8.10
2021,04,22,01,01,8.10
2021,04,22,01,02,8.10
2021,04,22,01,03,8.10
2021,04,22,01,04,8.10
2021,04,22,01,05,8.10
2021,04,22,01,06,8.20
2021,04,22,01,07,8.20
2021,04,22,01,08,8.20
2021,04,22,01,09,8.30
2021,04,22,01,10,8.30
2021,04,22,01,11,8.50
2021,04,22,01,12,8.70
2021,04,22,01,13,8.80
2021,04,22,01,14,8.90
2021,04,22,01,15,9.00
2021,04,22,01,16,9.00
2021,04,22,01,17,9.10
2021,04,22,01,18,9.10
2021,04,22,01,19,9.20
2021,04,22,01,20,9.20
2021,04,22,01,21,9.20
2021,04,22,01,22,9.20
2021,04,22,01,23,9.10
2021,04,22,01,24,9.10
2021,04,22,01,25,9.10
2021,04,22,01,26,9.10
2021,04,22,01,27,9.00
2021,04,22,01,28,9.00
2021,04,22,01,29,8.90
2021,04,22,01,30,8.90
2021,04,22,01,31,8.80
2021,04,22,01,32,8.80
2021,04,22,01,33,8.80
2021,04,22,01,34,8.80
2021,04,22,01,35,8.80
2021,04,22,01,36,8.70
2021,04,22,01,37,8.70
2021,04,22,01,38,8.60
2021,04,22,01,39,8.60
2021,04,22,01,40,8.50
2021,04,22,01,41,8.50
2021,04,22,01,42,8.40
2021,04,22,01,43,8.40
2021,04,22,01,44,8.40
2021,04,22,01,45,8.40
2021,04,22,01,46,8.40
2021,04,22,01,47,8.50
2021,04,22,01,48,8.50
2021,04,22,01,49,8.60
2021,04,22,01,50,8.60
2021,04,22,01,51,8.70
2021,04,22,01,52,8.70
2021,04,22,01,53,8.70
2021,04,22,01,54,8.70
2021,04,22,01,55,8.70
2021,04,22,01,56,8.70
2021,04,22,01,57,8.70
2021,04,22,01,58,8.60
2021,04,22,01,59,8.60
2021,04,22,02,00,8.70
2021,04,22,02,01,8.70
2021,04,22,02,02,8.60
2021,04,22,02,03,8.60
2021,04,22,02,04,8.60
2021,04,22,02,05,8.60
2021,04,22,02,06,8.60
2021,04,22,02,07,8.50
2021,04,22,02,08,8.50
2021,04,22,02,09,8.40
2021,04,22,02,10,8.40
2021,04,22,02,11,8.30
2021,04,22,02,12,8.30
2021,04,22,02,13,8.30
2021,04,22,02,14,8.20
2021,04,22,02,15,8.20
2021,04,22,02,16,8.20
2021,04,22,02,17,8.20
2021,04,22,02,18,8.20
2021,04,22,02,19,8.20
2021,04,22,02,20,8.20
2021,04,22,02,21,8.20
2021,04,22,02,22,8.20
2021,04,22,02,23,8.20
2021,04,22,02,24,8.20
2021,04,22,02,25,8.20
2021,04,22,02,26,8.20
2021,04,22,02,27,8.20
2021,04,22,02,28,8.20
2021,04,22,02,29,8.30
2021,04,22,02,30,8.30
2021,04,22,02,31,8.30
2021,04,22,02,32,8.30
2021,04,22,02,33,8.30
2021,04,22,02,34,8.30
2021,04,22,02,35,8.30
2021,04,22,02,36,8.30
2021,04,22,02,37,8.30
2021,04,22,02,38,8.30
2021,04,22,02,39,8.30
2021,04,22,02,40,8.40
2021,04,22,02,41,8.40
2021,04,22,02,42,8.40
2021,04,22,02,43,8.40
2021,04,22,02,44,8.40
2021,04,22,02,45,8.40
2021,04,22,02,46,8.30
2021,04,22,02,47,8.30
2021,04,22,02,48,8.30
2021,04,22,02,49,8.20
2021,04,22,02,50,8.20
2021,04,22,02,51,8.10
2021,04,22,02,52,8.10
2021,04,22,02,53,8.00
2021,04,22,02,54,7.90
2021,04,22,02,55,7.90
2021,04,22,02,56,7.80
2021,04,22,02,57,7.80
2021,04,22,02,58,7.70
2021,04,22,02,59,7.70
2021,04,22,03,00,7.70
2021,04,22,03,01,7.70
2021,04,22,03,02,7.60
2021,04,22,03,03,7.60
2021,04,22,03,04,7.60
2021,04,22,03,05,7.60
2021,04,22,03,06,7.50
2021,04,22,03,07,7.50
2021,04,22,03,08,7.40
2021,04,22,03,09,7.40
2021,04,22,03,10,7.40
2021,04,22,03,11,7.30
2021,04,22,03,12,7.30
2021,04,22,03,13,7.30
2021,04,22,03,14,7.30
2021,04,22,03,15,7.30
2021,04,22,03,16,7.30
2021,04,22,03,17,7.30
2021,04,22,03,18,7.30
2021,04,22,03,19,7.30
2021,04,22,03,20,7.30
2021,04,22,03,21,7.40
2021,04,22,03,22,7.40
2021,04,22,03,23,7.50
2021,04,22,03,24,7.50
2021,04,22,03,25,7.60
2021,04,22,03,26,7.60
2021,04,22,03,27,7.70
2021,04,22,03,28,7.70
2021,04,22,03,29,7.70
2021,04,22,03,30,7.70
2021,04,22,03,31,7.70
2021,04,22,03,32,7.70
2021,04,22,03,33,7.60
2021,04,22,03,34,7.60
2021,04,22,03,35,7.60
2021,04,22,03,36,7.60
2021,04,22,03,37,7.50
2021,04,22,03,38,7.50
2021,04,22,03,39,7.50
2021,04,22,03,40,7.40
2021,04,22,03,41,7.40
2021,04,22,03,42,7.40
2021,04,22,03,43,7.30
2021,04,22,03,44,7.30
2021,04,22,03,45,7.20
2021,04,22,03,46,7.10
2021,04,22,03,47,7.00
2021,04,22,03,48,7.00
2021,04,22,03,49,6.90
2021,04,22,03,50,6.80
2021,04,22,03,51,6.80
2021,04,22,03,52,6.80
2021,04,22,03,53,6.70
2021,04,22,03,54,6.70
2021,04,22,03,55,6.70
2021,04,22,03,56,6.70
2021,04,22,03,57,6.60
2021,04,22,03,58,6.60
2021,04,22,03,59,6.50
2021,04,22,04,00,6.50
2021,04,22,04,01,6.40
2021,04,22,04,02,6.40
2021,04,22,04,03,6.30
2021,04,22,04,04,6.30
2021,04,22,04,05,6.20
2021,04,22,04,06,6.20
2021,04,22,04,07,6.20
2021,04,22,04,08,6.10
2021,04,22,04,09,6.10
2021,04,22,04,10,6.00
2021,04,22,04,11,6.00
2021,04,22,04,12,5.90
2021,04,22,04,13,5.90
2021,04,22,04,14,5.90
2021,04,22,04,15,5.90
2021,04,22,04,16,5.90
2021,04,22,04,17,5.90
2021,04,22,04,18,5.90
2021,04,22,04,19,5.90
2021,04,22,04,20,5.90
2021,04,22,04,21,5.90
2021,04,22,04,22,5.90
2021,04,22,04,23,5.90
2021,04,22,04,24,5.90
2021,04,22,04,25,5.90
2021,04,22,04,26,5.90
2021,04,22,04,27,5.90
2021,04,22,04,28,6.00
2021,04,22,04,29,6.00
2021,04,22,04,30,6.10
2021,04,22,04,31,6.10
2021,04,22,04,32,6.10
2021,04,22,04,33,6.10
2021,04,22,04,34,6.10
2021,04,22,04,35,6.10
2021,04,22,04,36,6.10
2021,04,22,04,37,6.20
2021,04,22,04,38,6.20
2021,04,22,04,39,6.30
2021,04,22,04,40,6.30
2021,04,22,04,41,6.30
2021,04,22,04,42,6.40
2021,04,22,04,43,6.40
2021,04,22,04,44,6.50
2021,04,22,04,45,6.50
2021,04,22,04,46,6.50
2021,04,22,04,47,6.60
2021,04,22,04,48,6.60
2021,04,22,04,49,6.60
2021,04,22,04,50,6.60
2021,04,22,04,51,6.60
2021,04,22,04,52,6.60
2021,04,22,04,53,6.60
2021,04,22,04,54,6.70
2021,04,22,04,55,6.70
2021,04,22,04,56,6.70
2021,04,22,04,57,6.70
2021,04,22,04,58,6.70
2021,04,22,04,59,6.70
2021,04,22,05,00,6.70
2021,04,22,05,01,6.70
2021,04,22,05,02,6.70
2021,04,22,05,03,6.60
2021,04,22,05,04,6.60
2021,04,22,05,05,6.60
2021,04,22,05,06,6.60
2021,04,22,05,07,6.60
2021,04,22,05,08,6.60
2021,04,22,05,09,6.60
2021,04,22,05,10,6.60
2021,04,22,05,11,6.70
2021,04,22,05,12,6.70
2021,04,22,05,13,6.70
2021,04,22,05,14,6.70
2021,04,22,05,15,6.80
2021,04,22,05,16,6.80
2021,04,22,05,17,6.80
2021,04,22,05,18,6.80
2021,04,22,05,19,6.80
2021,04,22,05,20,6.90
2021,04,22,05,21,6.90
2021,04,22,05,22,6.90
2021,04,22,05,23,6.90
2021,04,22,05,24,6.90
2021,04,22,05,25,6.80
2021,04,22,05,26,6.80
2021,04,22,05,27,6.80
2021,04,22,05,28,6.80
2021,04,22,05,29,6.80
2021,04,22,05,30,6.80
2021,04,22,05,31,6.80
2021,04,22,05,32,6.80
2021,04,22,05,33,6.80
2021,04,22,05,34,6.80
2021,04,22,05,35,6.80
2021,04,22,05,36,6.80
2021,04,22,05,37,6.80
2021,04,22,05,38,6.80
2021,04,22,05,39,6.80
2021,04,22,05,40,6.80
2021,04,22,05,41,6.80
2021,04,22,05,42,6.70
2021,04,22,05,43,6.70
2021,04,22,05,44,6.70
2021,04,22,05,45,6.60
2021,04,22,05,46,6.60
2021,04,22,05,47,6.50
2021,04,22,05,48,6.50
2021,04,22,05,49,6.40
2021,04,22,05,50,6.40
2021,04,22,05,51,6.30
2021,04,22,05,52,6.30
2021,04,22,05,53,6.30
2021,04,22,05,54,6.30
2021,04,22,05,55,6.20
2021,04,22,05,56,6.20
2021,04,22,05,57,6.10
2021,04,22,05,58,6.10
2021,04,22,05,59,6.00
2021,04,22,06,00,6.00
2021,04,22,06,01,6.00
2021,04,22,06,02,5.90
2021,04,22,06,03,5.90
2021,04,22,06,04,5.90
2021,04,22,06,05,5.80
2021,04,22,06,06,5.80
2021,04,22,06,07,5.80
2021,04,22,06,08,5.80
2021,04,22,06,09,5.80
2021,04,22,06,10,5.80
2021,04,22,06,11,5.70
2021,04,22,06,12,5.70
2021,04,22,06,13,5.70
2021,04,22,06,14,5.70
2021,04,22,06,15,5.80
2021,04,22,06,16,5.80
2021,04,22,06,17,5.80
2021,04,22,06,18,5.80
2021,04,22,06,19,5.80
2021,04,22,06,20,5.90
2021,04,22,06,21,5.90
2021,04,22,06,22,5.90
2021,04,22,06,23,5.90
2021,04,22,06,24,5.90
2021,04,22,06,25,5.90
2021,04,22,06,26,5.80
2021,04,22,06,27,5.80
2021,04,22,06,28,5.80
2021,04,22,06,29,5.80
2021,04,22,06,30,5.80
2021,04,22,06,31,5.80
2021,04,22,06,32,5.80
2021,04,22,06,33,5.80
2021,04,22,06,34,5.80
2021,04,22,06,35,5.80
2021,04,22,06,36,5.80
2021,04,22,06,37,5.80
2021,04,22,06,38,5.80
2021,04,22,06,39,5.80
2021,04,22,06,40,5.80
2021,04,22,06,41,5.80
2021,04,22,06,42,5.90
2021,04,22,06,43,5.90
2021,04,22,06,44,5.90
2021,04,22,06,45,6.00
2021,04,22,06,46,6.00
2021,04,22,06,47,6.10
2021,04,22,06,48,6.10
2021,04,22,06,49,6.20
2021,04,22,06,50,6.30
2021,04,22,06,51,6.30
2021,04,22,06,52,6.40
2021,04,22,06,53,6.40
2021,04,22,06,54,6.50
2021,04,22,06,55,6.50
2021,04,22,06,56,6.60
2021,04,22,06,57,6.70
2021,04,22,06,58,6.70
2021,04,22,06,59,6.80
2021,04,22,07,00,6.80
2021,04,22,07,01,6.80
2021,04,22,07,02,6.90
2021,04,22,07,03,7.00
2021,04,22,07,04,7.00
2021,04,22,07,05,7.10
2021,04,22,07,06,7.10
2021,04,22,07,07,7.20
2021,04,22,07,08,7.30
2021,04,22,07,09,7.30
2021,04,22,07,10,7.40
2021,04,22,07,11,7.40
2021,04,22,07,12,7.50
2021,04,22,07,13,7.50
2021,04,22,07,14,7.50
2021,04,22,07,15,7.60
2021,04,22,07,16,7.60
2021,04,22,07,17,7.60
2021,04,22,07,18,7.60
2021,04,22,07,19,7.60
2021,04,22,07,20,7.60
2021,04,22,07,21,7.60
2021,04,22,07,22,7.60
2021,04,22,07,23,7.70
2021,04,22,07,24,7.70
2021,04,22,07,25,7.70
2021,04,22,07,26,7.80
2021,04,22,07,27,7.80
2021,04,22,07,28,7.80
2021,04,22,07,29,7.80
2021,04,22,07,30,7.90
2021,04,22,07,31,7.90
2021,04,22,07,32,7.90
2021,04,22,07,33,8.00
2021,04,22,07,34,8.00
2021,04,22,07,35,8.00
2021,04,22,07,36,8.10
2021,04,22,07,37,8.10
2021,04,22,07,38,8.10
2021,04,22,07,39,8.20
2021,04,22,07,40,8.20
2021,04,22,07,41,8.20
2021,04,22,07,42,8.30
2021,04,22,07,43,8.30
2021,04,22,07,44,8.30
2021,04,22,07,45,8.40
2021,04,22,07,46,8.40
2021,04,22,07,47,8.50
2021,04,22,07,48,8.50
2021,04,22,07,49,8.60
2021,04,22,07,50,8.60
2021,04,22,07,51,8.60
2021,04,22,07,52,8.70
2021,04,22,07,53,8.70
2021,04,22,07,54,8.70
2021,04,22,07,55,8.80
2021,04,22,07,56,8.80
2021,04,22,07,57,8.90
2021,04,22,07,58,8.90
2021,04,22,07,59,9.00
2021,04,22,08,00,9.00
2021,04,22,08,01,9.10
2021,04,22,08,02,9.10
2021,04,22,08,03,9.20
2021,04,22,08,04,9.20
2021,04,22,08,05,9.30
2021,04,22,08,06,9.40
2021,04,22,08,07,9.40
2021,04,22,08,08,9.50
2021,04,22,08,09,9.60
2021,04,22,08,10,9.60
2021,04,22,08,11,9.70
2021,04,22,08,12,9.70
2021,04,22,08,13,9.70
2021,04,22,08,14,9.80
2021,04,22,08,15,9.80
2021,04,22,08,16,9.80
2021,04,22,08,17,9.90
2021,04,22,08,18,9.90
2021,04,22,08,19,9.90
2021,04,22,08,20,9.90
2021,04,22,08,21,10.00
2021,04,22,08,22,10.00
2021,04,22,08,23,10.00
2021,04,22,08,24,10.00
2021,04,22,08,25,10.10
2021,04,22,08,26,10.10
2021,04,22,08,27,10.10
2021,04,22,08,28,10.10
2021,04,22,08,29,10.20
2021,04,22,08,30,10.20
2021,04,22,08,31,10.30
2021,04,22,08,32,10.30
2021,04,22,08,33,10.40
2021,04,22,08,34,10.40
2021,04,22,08,35,10.40
2021,04,22,08,36,10.50
2021,04,22,08,37,10.50
2021,04,22,08,38,10.60
2021,04,22,08,39,10.60
2021,04,22,08,40,10.60
2021,04,22,08,41,10.70
2021,04,22,08,42,10.70
2021,04,22,08,43,10.80
2021,04,22,08,44,10.80
2021,04,22,08,45,10.90
2021,04,22,08,46,11.00
2021,04,22,08,47,11.00
2021,04,22,08,48,11.10
2021,04,22,08,49,11.20
2021,04,22,08,50,11.30
2021,04,22,08,51,11.30
2021,04,22,08,52,11.40
2021,04,22,08,53,11.50
2021,04,22,08,54,11.50
2021,04,22,08,55,11.60
2021,04,22,08,56,11.70
2021,04,22,08,57,11.80
2021,04,22,08,58,11.80
2021,04,22,08,59,11.90
2021,04,22,09,00,11.90
2021,04,22,09,01,12.00
2021,04,22,09,02,12.00
2021,04,22,09,03,12.10
2021,04,22,09,04,12.20
2021,04,22,09,05,12.20
2021,04,22,09,06,12.30
2021,04,22,09,07,12.30
2021,04,22,09,08,12.40
2021,04,22,09,09,12.50
2021,04,22,09,10,12.60
2021,04,22,09,11,12.60
2021,04,22,09,12,12.70
2021,04,22,09,13,12.80
2021,04,22,09,14,13.00
2021,04,22,09,15,13.10
2021,04,22,09,16,13.20
2021,04,22,09,17,13.30
2021,04,22,09,18,13.40
2021,04,22,09,19,13.40
2021,04,22,09,20,13.40
2021,04,22,09,21,13.40
2021,04,22,09,22,13.40
2021,04,22,09,23,13.40
2021,04,22,09,24,13.40
2021,04,22,09,25,13.30
2021,04,22,09,26,13.30
2021,04,22,09,27,13.30
2021,04,22,09,28,13.30
2021,04,22,09,29,13.40
2021,04,22,09,30,13.40
2021,04,22,09,31,13.40
2021,04,22,09,32,13.50
2021,04,22,09,33,13.60
2021,04,22,09,34,13.60
2021,04,22,09,35,13.60
2021,04,22,09,36,13.70
2021,04,22,09,37,13.60
2021,04,22,09,38,13.60
2021,04,22,09,39,13.60
2021,04,22,09,40,13.70
2021,04,22,09,41,13.70
2021,04,22,09,42,13.70
2021,04,22,09,43,13.60
2021,04,22,09,44,13.60
2021,04,22,09,45,13.70
2021,04,22,09,46,13.70
2021,04,22,09,47,13.70
2021,04,22,09,48,13.80
2021,04,22,09,49,13.80
2021,04,22,09,50,13.70
2021,04,22,09,51,13.70
2021,04,22,09,52,13.70
2021,04,22,09,53,13.70
2021,04,22,09,54,13.70
2021,04,22,09,55,13.80
2021,04,22,09,56,13.80
2021,04,22,09,57,13.80
2021,04,22,09,58,13.70
2021,04,22,09,59,13.70
2021,04,22,10,00,13.80
2021,04,22,10,01,13.80
2021,04,22,10,02,13.80
2021,04,22,10,03,13.80
2021,04,22,10,04,13.80
2021,04,22,10,05,13.80
2021,04,22,10,06,13.80
2021,04,22,10,07,13.90
2021,04,22,10,08,14.00
2021,04,22,10,09,14.00
2021,04,22,10,10,14.10
2021,04,22,10,11,14.10
2021,04,22,10,12,14.10
2021,04,22,10,13,14.10
2021,04,22,10,14,14.20
2021,04,22,10,15,14.20
2021,04,22,10,16,14.20
2021,04,22,10,17,14.20
2021,04,22,10,18,14.20
2021,04,22,10,19,14.20
2021,04,22,10,20,14.20
2021,04,22,10,21,14.20
2021,04,22,10,22,14.30
2021,04,22,10,23,14.30
2021,04,22,10,24,14.40
2021,04,22,10,25,14.40
2021,04,22,10,26,14.50
2021,04,22,10,27,14.50
2021,04,22,10,28,14.50
2021,04,22,10,29,14.50
2021,04,22,10,30,14.50
2021,04,22,10,31,14.50
2021,04,22,10,32,14.50
2021,04,22,10,33,14.50
2021,04,22,10,34,14.60
2021,04,22,10,35,14.60
2021,04,22,10,36,14.50
2021,04,22,10,37,14.50
2021,04,22,10,38,14.50
2021,04,22,10,39,14.50
2021,04,22,10,40,14.60
2021,04,22,10,41,14.60
2021,04,22,10,42,14.60
2021,04,22,10,43,14.70
2021,04,22,10,44,14.70
2021,04,22,10,45,14.70
2021,04,22,10,46,14.70
2021,04,22,10,47,14.60
2021,04,22,10,48,14.60
2021,04,22,10,49,14.60
2021,04,22,10,50,14.60
2021,04,22,10,51,14.50
2021,04,22,10,52,14.50
2021,04,22,10,53,14.50
2021,04,22,10,54,14.50
2021,04,22,10,55,14.60
2021,04,22,10,56,14.60
2021,04,22,10,57,14.70
2021,04,22,10,58,14.80
2021,04,22,10,59,14.80
2021,04,22,11,00,14.80
2021,04,22,11,01,14.90
2021,04,22,11,02,15.00
2021,04,22,11,03,15.10
2021,04,22,11,04,15.10
2021,04,22,11,05,15.10
2021,04,22,11,06,15.10
2021,04,22,11,07,15.20
2021,04,22,11,08,15.30
2021,04,22,11,09,15.30
2021,04,22,11,10,15.30
2021,04,22,11,11,15.30
2021,04,22,11,12,15.30
2021,04,22,11,13,15.30
2021,04,22,11,14,15.30
2021,04,22,11,15,15.30
2021,04,22,11,16,15.30
2021,04,22,11,17,15.30
2021,04,22,11,18,15.30
2021,04,22,11,19,15.30
2021,04,22,11,20,15.20
2021,04,22,11,21,15.20
2021,04,22,11,22,15.20
2021,04,22,11,23,15.20
2021,04,22,11,24,15.30
2021,04,22,11,25,15.30
2021,04,22,11,26,15.40
2021,04,22,11,27,15.40
2021,04,22,11,28,15.40
2021,04,22,11,29,15.40
2021,04,22,11,30,15.50
2021,04,22,11,31,15.50
2021,04,22,11,32,15.50
2021,04,22,11,33,15.50
2021,04,22,11,34,15.50
2021,04,22,11,35,15.60
2021,04,22,11,36,15.60
2021,04,22,11,37,15.60
2021,04,22,11,38,15.50
2021,04,22,11,39,15.60
2021,04,22,11,40,15.60
2021,04,22,11,41,15.70
2021,04,22,11,42,15.70
2021,04,22,11,43,15.70
2021,04,22,11,44,15.80
2021,04,22,11,45,15.90
2021,04,22,11,46,15.90
2021,04,22,11,47,16.00
2021,04,22,11,48,16.00
2021,04,22,11,49,16.10
2021,04,22,11,50,16.10
2021,04,22,11,51,16.00
2021,04,22,11,52,16.00
2021,04,22,11,53,16.00
2021,04,22,11,54,16.10
2021,04,22,11,55,16.10
2021,04,22,11,56,16.20
2021,04,22,11,57,16.20
2021,04,22,11,58,16.30
2021,04,22,11,59,16.30
2021,04,22,12,00,16.30
2021,04,22,12,01,16.30
2021,04,22,12,02,16.30
2021,04,22,12,03,16.30
2021,04,22,12,04,16.30
2021,04,22,12,05,16.40
2021,04,22,12,06,16.40
2021,04,22,12,07,16.40
2021,04,22,12,08,16.40
2021,04,22,12,09,16.40
2021,04,22,12,10,16.40
2021,04,22,12,11,16.40
2021,04,22,12,12,16.40
2021,04,22,12,13,16.40
2021,04,22,12,14,16.40
2021,04,22,12,15,16.40
2021,04,22,12,16,16.50
2021,04,22,12,17,16.50
2021,04,22,12,18,16.50
2021,04,22,12,19,16.50
2021,04,22,12,20,16.60
2021,04,22,12,21,16.60
2021,04,22,12,22,16.70
2021,04,22,12,23,16.80
2021,04,22,12,24,16.80
2021,04,22,12,25,16.90
2021,04,22,12,26,16.90
2021,04,22,12,27,17.00
2021,04,22,12,28,17.00
2021,04,22,12,29,17.00
2021,04,22,12,30,17.00
2021,04,22,12,31,17.10
2021,04,22,12,32,17.10
2021,04,22,12,33,17.20
2021,04,22,12,34,17.20
2021,04,22,12,35,17.30
2021,04,22,12,36,17.20
2021,04,22,12,37,17.20
2021,04,22,12,38,17.20
2021,04,22,12,39,17.20
2021,04,22,12,40,17.10
2021,04,22,12,41,17.10
2021,04,22,12,42,17.10
2021,04,22,12,43,17.00
2021,04,22,12,44,17.00
2021,04,22,12,45,17.00
2021,04,22,12,46,17.10
2021,04,22,12,47,17.20
2021,04,22,12,48,17.20
2021,04,22,12,49,17.30
2021,04,22,12,50,17.30
2021,04,22,12,51,17.40
2021,04,22,12,52,17.40
2021,04,22,12,53,17.40
2021,04,22,12,54,17.40
2021,04,22,12,55,17.40
2021,04,22,12,56,17.40
2021,04,22,12,57,17.40
2021,04,22,12,58,17.40
2021,04,22,12,59,17.30
2021,04,22,13,00,17.30
2021,04,22,13,01,17.30
2021,04,22,13,02,17.30
2021,04,22,13,03,17.30
2021,04,22,13,04,17.30
2021,04,22,13,05,17.30
2021,04,22,13,06,17.30
2021,04,22,13,07,17.40
2021,04,22,13,08,17.40
2021,04,22,13,09,17.40
2021,04,22,13,10,17.40
2021,04,22,13,11,17.40
2021,04,22,13,12,17.40
2021,04,22,13,13,17.40
2021,04,22,13,14,17.50
2021,04,22,13,15,17.60
2021,04,22,13,16,17.70
2021,04,22,13,17,17.60
2021,04,22,13,18,17.60
2021,04,22,13,19,17.60
2021,04,22,13,20,17.60
2021,04,22,13,21,17.60
2021,04,22,13,22,17.70
2021,04,22,13,23,17.60
2021,04,22,13,24,17.60
2021,04,22,13,25,17.50
2021,04,22,13,26,17.50
2021,04,22,13,27,17.50
2021,04,22,13,28,17.60
2021,04,22,13,29,17.60
2021,04,22,13,30,17.70
2021,04,22,13,31,17.70
2021,04,22,13,32,17.70
2021,04,22,13,33,17.70
2021,04,22,13,34,17.70
2021,04,22,13,35,17.70
2021,04,22,13,36,17.70
2021,04,22,13,37,17.80
2021,04,22,13,38,17.90
2021,04,22,13,39,17.90
2021,04,22,13,40,17.90
2021,04,22,13,41,17.80
2021,04,22,13,42,17.80
2021,04,22,13,43,17.80
2021,04,22,13,44,17.80
2021,04,22,13,45,17.90
2021,04,22,13,46,18.00
2021,04,22,13,47,18.10
2021,04,22,13,48,18.10
2021,04,22,13,49,18.00
2021,04,22,13,50,18.00
2021,04,22,13,51,17.90
2021,04,22,13,52,18.00
2021,04,22,13,53,18.00
2021,04,22,13,54,18.10
2021,04,22,13,55,18.20
2021,04,22,13,56,18.20
2021,04,22,13,57,18.10
2021,04,22,13,58,18.20
2021,04,22,13,59,18.20
2021,04,22,14,00,18.20
2021,04,22,14,01,18.20
2021,04,22,14,02,18.30
2021,04,22,14,03,18.40
2021,04,22,14,04,18.50
2021,04,22,14,05,18.50
2021,04,22,14,06,18.60
2021,04,22,14,07,18.60
2021,04,22,14,08,18.60
2021,04,22,14,09,18.60
2021,04,22,14,10,18.60
2021,04,22,14,11,18.60
2021,04,22,14,12,18.60
2021,04,22,14,13,18.60
2021,04,22,14,14,18.70
2021,04,22,14,15,18.70
2021,04,22,14,16,18.70
2021,04,22,14,17,18.70
2021,04,22,14,18,18.70
2021,04,22,14,19,18.70
2021,04,22,14,20,18.70
2021,04,22,14,21,18.70
2021,04,22,14,22,18.80
2021,04,22,14,23,18.80
2021,04,22,14,24,18.80
2021,04,22,14,25,18.70
2021,04,22,14,26,18.80
2021,04,22,14,27,18.80
2021,04,22,14,28,18.80
2021,04,22,14,29,18.90
2021,04,22,14,30,19.00
2021,04,22,14,31,19.00
2021,04,22,14,32,19.10
2021,04,22,14,33,19.10
2021,04,22,14,34,19.10
2021,04,22,14,35,19.10
2021,04,22,14,36,19.10
2021,04,22,14,37,19.10
2021,04,22,14,38,19.20
2021,04,22,14,39,19.20
2021,04,22,14,40,19.30
2021,04,22,14,41,19.30
2021,04,22,14,42,19.40
2021,04,22,14,43,19.30
2021,04,22,14,44,19.30
2021,04,22,14,45,19.30
2021,04,22,14,46,19.30
2021,04,22,14,47,19.30
2021,04,22,14,48,19.40
2021,04,22,14,49,19.40
2021,04,22,14,50,19.40
2021,04,22,14,51,19.40
2021,04,22,14,52,19.50
2021,04,22,14,53,19.60
2021,04,22,14,54,19.60
2021,04,22,14,55,19.70
2021,04,22,14,56,19.70
2021,04,22,14,57,19.60
2021,04,22,14,58,19.60
2021,04,22,14,59,19.60
2021,04,22,15,00,19.60
2021,04,22,15,01,19.60
2021,04,22,15,02,19.50
2021,04,22,15,03,19.40
2021,04,22,15,04,19.40
2021,04,22,15,05,19.40
2021,04,22,15,06,19.40
2021,04,22,15,07,19.40
2021,04,22,15,08,19.50
2021,04,22,15,09,19.40
2021,04,22,15,10,19.40
2021,04,22,15,11,19.40
2021,04,22,15,12,19.30
2021,04,22,15,13,19.30
2021,04,22,15,14,19.40
2021,04,22,15,15,19.40
2021,04,22,15,16,19.50
2021,04,22,15,17,19.40
2021,04,22,15,18,19.40
2021,04,22,15,19,19.40
2021,04,22,15,20,19.40
2021,04,22,15,21,19.40
2021,04,22,15,22,19.40
2021,04,22,15,23,19.30
2021,04,22,15,24,19.40
2021,04,22,15,25,19.40
2021,04,22,15,26,19.40
2021,04,22,15,27,19.40
2021,04,22,15,28,19.40
2021,04,22,15,29,19.40
2021,04,22,15,30,19.50
2021,04,22,15,31,19.50
2021,04,22,15,32,19.50
2021,04,22,15,33,19.50
2021,04,22,15,34,19.60
2021,04,22,15,35,19.60
2021,04,22,15,36,19.70
2021,04,22,15,37,19.70
2021,04,22,15,38,19.70
2021,04,22,15,39,19.70
2021,04,22,15,40,19.70
2021,04,22,15,41,19.70
2021,04,22,15,42,19.70
2021,04,22,15,43,19.70
2021,04,22,15,44,19.70
2021,04,22,15,45,19.80
2021,04,22,15,46,19.80
2021,04,22,15,47,19.90
2021,04,22,15,48,19.90
2021,04,22,15,49,19.90
2021,04,22,15,50,19.90
2021,04,22,15,51,19.90
2021,04,22,15,52,19.90
2021,04,22,15,53,19.90
2021,04,22,15,54,19.90
2021,04,22,15,55,19.90
2021,04,22,15,56,19.90
2021,04,22,15,57,19.90
2021,04,22,15,58,19.90
2021,04,22,15,59,19.90
2021,04,22,16,00,19.90
2021,04,22,16,01,19.80
2021,04,22,16,02,19.80
2021,04,22,16,03,19.80
2021,04,22,16,04,19.80
2021,04,22,16,05,19.90
2021,04,22,16,06,20.00
2021,04,22,16,07,20.00
2021,04,22,16,08,20.10
2021,04,22,16,09,20.10
2021,04,22,16,10,20.10
2021,04,22,16,11,20.10
2021,04,22,16,12,20.00
2021,04,22,16,13,20.00
2021,04,22,16,14,19.90
2021,04,22,16,15,19.80
2021,04,22,16,16,19.80
2021,04,22,16,17,19.80
2021,04,22,16,18,19.80
2021,04,22,16,19,19.80
2021,04,22,16,20,19.80
2021,04,22,16,21,19.70
2021,04,22,16,22,19.70
2021,04,22,16,23,19.70
2021,04,22,16,24,19.80
2021,04,22,16,25,19.80
2021,04,22,16,26,19.70
2021,04,22,16,27,19.70
2021,04,22,16,28,19.80
2021,04,22,16,29,19.80
2021,04,22,16,30,19.80
2021,04,22,16,31,19.90
2021,04,22,16,32,20.00
2021,04,22,16,33,20.00
2021,04,22,16,34,20.10
2021,04,22,16,35,20.10
2021,04,22,16,36,20.10
2021,04,22,16,37,20.00
2021,04,22,16,38,20.00
2021,04,22,16,39,19.90
2021,04,22,16,40,19.90
2021,04,22,16,41,19.90
2021,04,22,16,42,19.90
2021,04,22,16,43,19.90
2021,04,22,16,44,19.90
2021,04,22,16,45,19.90
2021,04,22,16,46,19.90
2021,04,22,16,47,19.90
2021,04,22,16,48,19.90
2021,04,22,16,49,20.00
2021,04,22,16,50,20.00
2021,04,22,16,51,20.00
2021,04,22,16,52,20.00
2021,04,22,16,53,20.00
2021,04,22,16,54,20.00
2021,04,22,16,55,20.00
2021,04,22,16,56,20.00
2021,04,22,16,57,20.00
2021,04,22,16,58,20.10
2021,04,22,16,59,20.10
2021,04,22,17,00,20.10
2021,04,22,17,01,20.10
2021,04,22,17,02,20.20
2021,04,22,17,03,20.20
2021,04,22,17,04,20.20
2021,04,22,17,05,20.20
2021,04,22,17,06,20.20
2021,04,22,17,07,20.20
2021,04,22,17,08,20.20
2021,04,22,17,09,20.20
2021,04,22,17,10,20.20
2021,04,22,17,11,20.10
2021,04,22,17,12,20.10
2021,04,22,17,13,20.10
2021,04,22,17,14,20.00
2021,04,22,17,15,20.00
2021,04,22,17,16,20.10
2021,04,22,17,17,20.10
2021,04,22,17,18,20.10
2021,04,22,17,19,20.10
2021,04,22,17,20,20.10
2021,04,22,17,21,20.10
2021,04,22,17,22,20.10
2021,04,22,17,23,20.10
2021,04,22,17,24,20.10
2021,04,22,17,25,20.10
2021,04,22,17,26,20.10
2021,04,22,17,27,20.10
2021,04,22,17,28,20.10
2021,04,22,17,29,20.10
2021,04,22,17,30,20.10
2021,04,22,17,31,20.10
2021,04,22,17,32,20.10
2021,04,22,17,33,20.10
2021,04,22,17,34,20.10
2021,04,22,17,35,20.20
2021,04,22,17,36,20.20
2021,04,22,17,37,20.20
2021,04,22,17,38,20.20
2021,04,22,17,39,20.20
2021,04,22,17,40,20.20
2021,04,22,17,41,20.10